OpenBCM V2.0.2 (Linux)

Packet Radio Mailbox

IZ3LSV

[San Dona' di P. JN]

 Login: GUEST





  
CX2SA  > KEP      25.06.08 06:32l 77 Lines 3128 Bytes #999 (0) @ WW
BID : ARLK048
Read: GUEST
Subj: ARLK048 Keplerian data
Path: IZ3LSV<I0TVL<IK1ZNW<IR1UAW<IK2QCA<I4UKI<IK6ZDE<VE2PKT<CX2SA
Sent: 080624/2222Z @:CX2SA.LAV.URY.SA #:12854 [Minas] FBB7.00e $:ARLK048
From: CX2SA@CX2SA.LAV.URY.SA
To  : KEP@ARL


ZCZC SK48
QST de W1AW  
Keplerian Bulletin 48  ARLK048
From ARRL Headquarters
Newington, CT  June 24, 2008
To all radio amateurs 

SB KEP ARL ARLK048
ARLK048 Keplerian data

Special thanks to AMSAT-NA (AMSAT.ORG) for the following Keplerian
data.

Decode 2-line elsets with the following key:
1 AAAAAU 00  0  0 BBBBB.BBBBBBBB  .CCCCCCCC  00000-0  00000-0 0  DDDZ
2 AAAAA EEE.EEEE FFF.FFFF GGGGGGG HHH.HHHH III.IIII JJ.JJJJJJJJKKKKKZ
KEY: A-CATALOGNUM B-EPOCHTIME C-DECAY D-ELSETNUM E-INCLINATION F-RAAN
G-ECCENTRICITY H-ARGPERIGEE I-MNANOM J-MNMOTION K-ORBITNUM Z-CHECKSUM

AO-07
1 07530U 74089B   08176.47615415 -.00000027  00000-0  10000-3 0  2096
2 07530 101.4639 207.7278 0011638 247.8684 112.1156 12.53573793537896
UO-11
1 14781U 84021B   08175.74521929  .00000387  00000-0  58789-4 0  7027
2 14781 098.1524 209.8764 0010024 055.9560 304.2620 14.79651300304825
AO-16
1 20439U 90005D   08175.84945896  .00000016  00000-0  21043-4 0  3519
2 20439 098.2298 155.5711 0011216 152.1986 207.9807 14.31796729961879
AO-27
1 22825U 93061C   08175.85139794 -.00000054 +00000-0 -46518-5 0 00019
2 22825 098.3857 135.6241 0007511 239.5348 120.5109 14.29241180768721
IO-26
1 22826U 93061D   08175.90428411 -.00000015 +00000-0 +10613-4 0 07078
2 22826 098.3773 136.5806 0008123 235.1496 124.8924 14.29490234768821
PO-28
1 22829U 93061G   08175.74759145 +.00000095 +00000-0 +52937-4 0 09775
2 22829 098.3653 137.5331 0009235 205.1098 154.9620 14.30191875769060
FO-29
1 24278U 96046B   08175.92525736 -.00000105 +00000-0 -70504-4 0 08210
2 24278 098.5854 091.3358 0350521 198.0122 160.8336 13.52937379585309
GO-32
1 25397U 98043D   08176.21156270  .00000082  00000-0  54384-4 0  6306
2 25397 098.3622 211.0266 0000923 171.5322 188.5880 14.23145405517214
ISS
1 25544U 98067A   08176.52603819  .00009481  00000-0  67276-4 0  7325
2 25544 051.6409 338.6205 0008338 286.9384 150.0155 15.74714410549689
MO-46
1 26548U 00057D   08176.31389761  .00000019  00000-0  20423-4 0  1310
2 26548 064.5572 108.2210 0030334 323.2415 036.6604 14.83272110418875
AO-40
1 26609U 00072B   08175.17891321 -.00000095  00000-0  10000-3 0   827
2 26609 007.5892 076.1863 7916840 094.1023 348.6356 01.25585206 35110
NO-44
1 26931U 01043C   08176.49199636 -.00000222  00000-0 -54302-4 0  9107
2 26931 067.0536 265.8387 0007016 271.8834 088.1437 14.29524852351457
SO-50
1 27607U 02058C   08175.87117405 -.00000061  00000-0  12872-4 0  6349
2 27607 064.5597 033.3416 0085874 278.2714 080.8666 14.71363573295957
CO-55
1 27844U 03031E   08175.77576080 +.00000024 +00000-0 +31542-4 0 03352
2 27844 098.7138 183.9497 0010937 095.3617 264.8810 14.20584861258378
AO-51
1 28375U 04025K   08176.13334592  .00000012  00000-0  15892-4 0  1318
2 28375 098.0700 200.3129 0084302 131.0298 229.8216 14.40611722209402
VO-52
1 28650U 05017B   08175.82278262  .00000217  00000-0  34097-4 0  9630
2 28650 097.7889 242.2524 0028245 117.9500 242.4584 14.81476220169589

Keplerian bulletins are transmitted twice weekly from W1AW.  The
next scheduled transmission of these data will be Friday, June 27,
2008, at 2230z on Baudot and AMTOR.
NNNN


Read previous mail | Read next mail


 04.05.2026 22:43:28lGo back Go up